| time (UTC) | temp C | wind direction | speed KPH | gust KPH | rain 1hr cm | rain 24hr cm | rain mn cm | humidity % | barometer mb |
| 20260504050509 | 19 | 113 | 14.5 | 32.2 | 0.00 | 0.20 | 0.00 | 54 | 1005.6 |
| 20260504050013 | 19 | 237 | 14.5 | 24.1 | 0.00 | 0.20 | 0.00 | 54 | 1005.7 |
| 20260504045509 | 19 | 1 | 14.5 | 29.0 | 0.00 | 0.20 | 0.00 | 54 | 1005.6 |
| 20260504044509 | 19 | 97 | 16.1 | 29.0 | 0.00 | 0.20 | 0.00 | 52 | 1005.5 |
| 20260504043510 | 19 | 0 | 12.9 | 38.6 | 0.00 | 0.20 | 0.00 | 52 | 1005.5 |
| 20260504042509 | 20 | 274 | 14.5 | 29.0 | 0.00 | 0.20 | 0.00 | 52 | 1005.7 |
| 20260504042010 | 20 | 301 | 14.5 | 29.0 | 0.00 | 0.20 | 0.00 | 53 | 1005.8 |
| 20260504041510 | 20 | 93 | 11.3 | 22.5 | 0.00 | 0.20 | 0.00 | 52 | 1005.8 |
| 20260504041010 | 20 | 109 | 9.7 | 32.2 | 0.00 | 0.20 | 0.00 | 52 | 1005.8 |
| 20260504040509 | 20 | 227 | 11.3 | 22.5 | 0.00 | 0.20 | 0.00 | 52 | 1005.9 |
| 20260504040012 | 20 | 117 | 14.5 | 25.7 | 0.00 | 0.20 | 0.00 | 52 | 1006.0 |
| 20260504035509 | 20 | 107 | 11.3 | 24.1 | 0.00 | 0.20 | 0.00 | 53 | 1005.9 |
| 20260504035010 | 20 | 200 | 11.3 | 40.2 | 0.00 | 0.20 | 0.00 | 51 | 1006.0 |
| 20260504034010 | 20 | 202 | 11.3 | 25.7 | 0.00 | 0.20 | 0.00 | 53 | 1006.1 |
| 20260504033509 | 20 | 169 | 9.7 | 20.9 | 0.00 | 0.20 | 0.00 | 54 | 1006.2 |
| 20260504033011 | 20 | 115 | 14.5 | 25.7 | 0.00 | 0.20 | 0.00 | 52 | 1006.2 |
| 20260504032508 | 20 | 188 | 12.9 | 32.2 | 0.00 | 0.20 | 0.00 | 52 | 1006.3 |
| 20260504032010 | 20 | 186 | 9.7 | 25.7 | 0.00 | 0.20 | 0.00 | 54 | 1006.4 |
| 20260504030509 | 20 | 187 | 11.3 | 22.5 | 0.00 | 0.20 | 0.00 | 55 | 1006.7 |
| 20260504030011 | 20 | 190 | 17.7 | 35.4 | 0.00 | 0.20 | 0.00 | 54 | 1006.8 |
| 20260504025509 | 20 | 333 | 9.7 | 19.3 | 0.00 | 0.20 | 0.00 | 56 | 1006.8 |
| 20260504025011 | 20 | 174 | 9.7 | 20.9 | 0.00 | 0.20 | 0.00 | 56 | 1006.8 |
| 20260504024510 | 19 | 191 | 9.7 | 19.3 | 0.00 | 0.20 | 0.00 | 57 | 1006.9 |
| 20260504024010 | 19 | 195 | 9.7 | 24.1 | 0.00 | 0.20 | 0.00 | 57 | 1006.8 |
| 20260504022509 | 19 | 141 | 14.5 | 24.1 | 0.00 | 0.20 | 0.00 | 59 | 1007.1 |
| 20260504021508 | 18 | 108 | 9.7 | 19.3 | 0.00 | 0.23 | 0.00 | 60 | 1007.2 |
| 20260504020509 | 18 | 176 | 11.3 | 29.0 | 0.00 | 0.30 | 0.00 | 59 | 1007.4 |
| 20260504020011 | 18 | 16 | 12.9 | 32.2 | 0.00 | 0.33 | 0.00 | 59 | 1007.4 |
| 20260504015011 | 18 | 21 | 12.9 | 29.0 | 0.00 | 0.41 | 0.00 | 59 | 1007.6 |
| 20260504014010 | 19 | 22 | 9.7 | 29.0 | 0.00 | 0.56 | 0.00 | 59 | 1007.7 |
| 20260504013509 | 19 | 318 | 8.0 | 20.9 | 0.00 | 0.64 | 0.00 | 60 | 1007.6 |
| 20260504013010 | 19 | 128 | 8.0 | 24.1 | 0.00 | 0.71 | 0.00 | 61 | 1007.8 |
| 20260504012509 | 18 | 31 | 12.9 | 25.7 | 0.00 | 0.76 | 0.00 | 60 | 1007.9 |
| 20260504012011 | 18 | 48 | 14.5 | 22.5 | 0.00 | 0.79 | 0.00 | 60 | 1007.9 |
| 20260504011011 | 18 | 61 | 6.4 | 16.1 | 0.00 | 0.97 | 0.00 | 63 | 1007.8 |
| 20260504010509 | 18 | 142 | 11.3 | 22.5 | 0.00 | 0.99 | 0.00 | 61 | 1007.9 |
| 20260504010011 | 18 | 95 | 11.3 | 19.3 | 0.00 | 0.99 | 0.00 | 61 | 1008.0 |
| 20260504005509 | 18 | 191 | 9.7 | 20.9 | 0.00 | 1.02 | 0.00 | 61 | 1008.0 |
| 20260504004509 | 18 | 196 | 9.7 | 19.3 | 0.00 | 1.07 | 0.00 | 62 | 1008.1 |
| 20260504004011 | 18 | 152 | 12.9 | 20.9 | 0.00 | 1.12 | 0.00 | 61 | 1008.1 |
| 20260504003510 | 18 | 310 | 11.3 | 24.1 | 0.00 | 1.17 | 0.00 | 63 | 1007.9 |
| 20260504003010 | 18 | 5 | 11.3 | 19.3 | 0.00 | 1.17 | 0.00 | 63 | 1007.9 |
| 20260504002509 | 18 | 11 | 12.9 | 24.1 | 0.00 | 1.17 | 0.00 | 63 | 1008.1 |
| 20260504002009 | 18 | 200 | 9.7 | 24.1 | 0.00 | 1.17 | 0.00 | 64 | 1008.2 |
| 20260504001509 | 17 | 188 | 6.4 | 19.3 | 0.00 | 1.17 | 0.00 | 65 | 1008.0 |
| 20260504001011 | 17 | 40 | 8.0 | 16.1 | 0.00 | 1.17 | 0.00 | 64 | 1008.0 |
| 20260504000509 | 17 | 186 | 12.9 | 22.5 | 0.00 | 1.17 | 0.00 | 64 | 1008.0 |
| 20260504000011 | 17 | 3 | 9.7 | 19.3 | 0.00 | 1.17 | 0.00 | 65 | 1007.9 |
| 20260503235509 | 17 | 40 | 16.1 | 24.1 | 0.00 | 1.17 | 0.00 | 64 | 1008.0 |
| 20260503235011 | 17 | 295 | 14.5 | 25.7 | 0.00 | 1.17 | 0.00 | 64 | 1008.1 |
| 20260503234510 | 17 | 194 | 11.3 | 20.9 | 0.00 | 1.17 | 0.00 | 64 | 1008.1 |
| 20260503234010 | 17 | 0 | 9.7 | 22.5 | 0.00 | 1.17 | 0.00 | 64 | 1008.0 |
| 20260503232509 | 17 | 56 | 9.7 | 29.0 | 0.00 | 1.17 | 0.00 | 65 | 1008.2 |
| 20260503232010 | 17 | 89 | 11.3 | 20.9 | 0.00 | 1.17 | 0.00 | 66 | 1008.4 |
| 20260503231509 | 16 | 296 | 9.7 | 19.3 | 0.00 | 1.17 | 0.00 | 66 | 1008.2 |
| 20260503231009 | 16 | 0 | 11.3 | 24.1 | 0.00 | 1.17 | 0.00 | 66 | 1008.2 |
| 20260503230011 | 16 | 24 | 9.7 | 19.3 | 0.00 | 1.17 | 0.00 | 67 | 1008.3 |
| 20260503225509 | 16 | 45 | 9.7 | 25.7 | 0.00 | 1.17 | 0.00 | 68 | 1008.3 |
| 20260503224509 | 15 | 165 | 8.0 | 14.5 | 0.00 | 1.17 | 0.00 | 69 | 1008.4 |
| 20260503224011 | 15 | 188 | 8.0 | 16.1 | 0.00 | 1.17 | 0.00 | 70 | 1008.4 |
| 20260503223509 | 15 | 42 | 9.7 | 19.3 | 0.00 | 1.17 | 0.00 | 72 | 1008.4 |
| 20260503223009 | 15 | 111 | 9.7 | 19.3 | 0.00 | 1.17 | 0.00 | 72 | 1008.4 |
| 20260503222509 | 14 | 41 | 8.0 | 22.5 | 0.00 | 1.17 | 0.00 | 73 | 1008.4 |
| 20260503221509 | 14 | 26 | 9.7 | 14.5 | 0.00 | 1.17 | 0.00 | 74 | 1008.4 |
| 20260503220508 | 14 | 194 | 8.0 | 14.5 | 0.00 | 1.17 | 0.00 | 74 | 1008.4 |
| 20260503220011 | 14 | 27 | 9.7 | 16.1 | 0.00 | 1.17 | 0.00 | 75 | 1008.5 |
| 20260503215509 | 13 | 181 | 8.0 | 16.1 | 0.00 | 1.17 | 0.00 | 75 | 1008.5 |
| 20260503215010 | 13 | 187 | 6.4 | 14.5 | 0.00 | 1.17 | 0.00 | 75 | 1008.5 |
| 20260503214010 | 13 | 148 | 8.0 | 12.9 | 0.00 | 1.17 | 0.00 | 75 | 1008.3 |
| 20260503213010 | 13 | 21 | 8.0 | 19.3 | 0.00 | 1.17 | 0.00 | 77 | 1008.3 |
| 20260503211508 | 13 | 39 | 9.7 | 19.3 | 0.00 | 1.17 | 0.00 | 78 | 1008.4 |
| 20260503211010 | 13 | 20 | 9.7 | 19.3 | 0.00 | 1.17 | 0.00 | 78 | 1008.4 |
| 20260503210509 | 13 | 40 | 11.3 | 19.3 | 0.00 | 1.17 | 0.00 | 79 | 1008.4 |
| 20260503210011 | 13 | 3 | 9.7 | 16.1 | 0.00 | 1.17 | 0.00 | 79 | 1008.4 |
| 20260503205509 | 13 | 115 | 9.7 | 19.3 | 0.00 | 1.17 | 0.00 | 79 | 1008.4 |
| 20260503205010 | 13 | 69 | 6.4 | 14.5 | 0.00 | 1.17 | 0.00 | 79 | 1008.3 |
| 20260503204508 | 13 | 35 | 8.0 | 12.9 | 0.00 | 1.17 | 0.00 | 79 | 1008.3 |
| 20260503204010 | 13 | 41 | 8.0 | 12.9 | 0.00 | 1.17 | 0.00 | 79 | 1008.2 |
| 20260503203009 | 13 | 38 | 9.7 | 12.9 | 0.00 | 1.17 | 0.00 | 79 | 1008.0 |
| 20260503202509 | 13 | 52 | 8.0 | 19.3 | 0.00 | 1.17 | 0.00 | 80 | 1008.0 |
| 20260503202010 | 13 | 24 | 11.3 | 22.5 | 0.00 | 1.17 | 0.00 | 80 | 1008.0 |
| 20260503201509 | 13 | 21 | 9.7 | 19.3 | 0.00 | 1.17 | 0.00 | 80 | 1008.0 |
| 20260503200509 | 13 | 17 | 11.3 | 19.3 | 0.00 | 1.17 | 0.00 | 81 | 1008.0 |
| 20260503200011 | 13 | 120 | 9.7 | 20.9 | 0.00 | 1.17 | 0.00 | 81 | 1008.0 |
| 20260503195508 | 13 | 10 | 11.3 | 22.5 | 0.00 | 1.17 | 0.00 | 81 | 1008.0 |
| 20260503195010 | 13 | 31 | 9.7 | 14.5 | 0.00 | 1.17 | 0.00 | 82 | 1008.1 |
| 20260503194508 | 13 | 100 | 8.0 | 14.5 | 0.00 | 1.17 | 0.00 | 82 | 1008.1 |
| 20260503194009 | 13 | 326 | 8.0 | 14.5 | 0.00 | 1.17 | 0.00 | 82 | 1008.1 |
| 20260503193509 | 13 | 39 | 6.4 | 16.1 | 0.00 | 1.17 | 0.00 | 82 | 1008.2 |
| 20260503193009 | 13 | 118 | 9.7 | 22.5 | 0.00 | 1.17 | 0.00 | 82 | 1008.2 |
| 20260503192509 | 13 | 49 | 6.4 | 19.3 | 0.00 | 1.17 | 0.00 | 82 | 1008.3 |
| 20260503192009 | 13 | 0 | 8.0 | 12.9 | 0.00 | 1.17 | 0.00 | 82 | 1008.4 |
| 20260503191508 | 13 | 39 | 6.4 | 16.1 | 0.00 | 1.17 | 0.00 | 83 | 1008.5 |
| 20260503191009 | 13 | 29 | 9.7 | 19.3 | 0.00 | 1.17 | 0.00 | 83 | 1008.5 |
| 20260503190509 | 13 | 100 | 8.0 | 16.1 | 0.00 | 1.17 | 0.00 | 83 | 1008.5 |
| 20260503190010 | 13 | 5 | 8.0 | 16.1 | 0.00 | 1.17 | 0.00 | 83 | 1008.5 |
| 20260503185509 | 13 | 35 | 9.7 | 19.3 | 0.00 | 1.17 | 0.00 | 83 | 1008.6 |
| 20260503185009 | 13 | 13 | 8.0 | 20.9 | 0.00 | 1.17 | 0.00 | 83 | 1008.7 |
| 20260503184509 | 13 | 0 | 9.7 | 16.1 | 0.00 | 1.17 | 0.00 | 83 | 1008.7 |
| 20260503183508 | 13 | 41 | 9.7 | 14.5 | 0.00 | 1.17 | 0.00 | 82 | 1008.6 |
| 20260503183010 | 13 | 39 | 8.0 | 20.9 | 0.00 | 1.17 | 0.00 | 83 | 1008.6 |
| 20260503182010 | 13 | 104 | 8.0 | 16.1 | 0.00 | 1.17 | 0.00 | 82 | 1008.8 |
| 20260503181509 | 13 | 132 | 8.0 | 19.3 | 0.00 | 1.17 | 0.00 | 82 | 1008.8 |
| 20260503181010 | 13 | 247 | 8.0 | 19.3 | 0.00 | 1.17 | 0.00 | 82 | 1008.8 |
| 20260503180509 | 13 | 36 | 8.0 | 19.3 | 0.00 | 1.17 | 0.00 | 82 | 1008.8 |
| 20260503180011 | 13 | 21 | 6.4 | 19.3 | 0.00 | 1.17 | 0.00 | 82 | 1008.9 |
| 20260503175508 | 13 | 110 | 9.7 | 19.3 | 0.00 | 1.17 | 0.00 | 82 | 1008.9 |
| 20260503175010 | 13 | 25 | 8.0 | 19.3 | 0.00 | 1.17 | 0.00 | 82 | 1009.0 |
| 20260503174508 | 13 | 39 | 8.0 | 19.3 | 0.00 | 1.17 | 0.00 | 82 | 1008.9 |
| 20260503174010 | 13 | 19 | 9.7 | 14.5 | 0.00 | 1.17 | 0.00 | 82 | 1008.9 |
| 20260503173508 | 13 | 17 | 8.0 | 16.1 | 0.00 | 1.17 | 0.00 | 82 | 1008.9 |
| 20260503173016 | 14 | 21 | 8.0 | 14.5 | 0.00 | 1.17 | 0.00 | 82 | 1009.0 |
| 20260503172010 | 14 | 0 | 8.0 | 20.9 | 0.00 | 1.17 | 0.00 | 82 | 1009.0 |
| 20260503171010 | 14 | 17 | 9.7 | 16.1 | 0.00 | 1.17 | 0.00 | 82 | 1009.1 |
| 20260503170508 | 14 | 272 | 9.7 | 14.5 | 0.00 | 1.17 | 0.00 | 82 | 1008.9 |
| 20260503151010 | 14 | 31 | 8.0 | 19.3 | 0.00 | 1.17 | 0.00 | 81 | 1009.4 |
| 20260503150509 | 14 | 16 | 8.0 | 16.1 | 0.00 | 1.17 | 0.00 | 80 | 1009.4 |
| 20260503131018 | 15 | 46 | 4.8 | 9.7 | 0.00 | 1.17 | 1.17 | 80 | 1009.6 |
| 20260503130517 | 15 | 38 | 3.2 | 9.7 | 0.00 | 1.17 | 1.17 | 80 | 1009.7 |
| 20260503110517 | 13 | 0 | 3.2 | 8.0 | 0.00 | 1.17 | 1.17 | 81 | 1010.0 |
| 20260503081516 | 16 | 195 | 4.8 | 16.1 | 0.00 | 1.17 | 1.17 | 75 | 1007.9 |
| 20260503081018 | 16 | 193 | 4.8 | 9.7 | 0.00 | 1.17 | 1.17 | 75 | 1007.8 |
| 20260503080516 | 16 | 311 | 4.8 | 11.3 | 0.00 | 1.17 | 1.17 | 75 | 1007.9 |
| 20260503072018 | 16 | 195 | 4.8 | 11.3 | 0.00 | 1.17 | 1.17 | 80 | 1008.1 |
| 20260503071516 | 16 | 191 | 4.8 | 16.1 | 0.00 | 1.17 | 1.17 | 80 | 1007.8 |
| 20260503071018 | 16 | 178 | 8.0 | 12.9 | 0.00 | 1.17 | 1.17 | 81 | 1007.7 |
| 20260503070516 | 16 | 191 | 4.8 | 11.3 | 0.00 | 1.17 | 1.17 | 82 | 1007.5 |
| 20260503055017 | 17 | 183 | 6.4 | 19.3 | 0.18 | 1.14 | 1.14 | 85 | 1007.3 |
| 20260503054516 | 18 | 168 | 8.0 | 16.1 | 0.18 | 1.14 | 1.14 | 84 | 1007.4 |
| 20260503054018 | 18 | 172 | 11.3 | 22.5 | 0.18 | 1.14 | 1.14 | 83 | 1007.4 |
| 20260503053516 | 19 | 173 | 8.0 | 12.9 | 0.13 | 1.09 | 1.09 | 84 | 1007.6 |
| 20260503053018 | 19 | 165 | 8.0 | 11.3 | 0.05 | 1.02 | 1.02 | 83 | 1007.3 |
| 20260503052516 | 19 | 190 | 3.2 | 14.5 | 0.05 | 1.02 | 1.02 | 82 | 1007.0 |
| 20260503052018 | 20 | 182 | 6.4 | 19.3 | 0.03 | 0.99 | 0.99 | 81 | 1007.1 |